Williamsburg-Whitley County (BYL)

 

Airport Diagram
No Airport Diagram Available
Current Weather/Forecast (MVFR Conditions)
METAR KBYL 251715Z AUTO 09006KT 8SM BKN014 OVC025 07/07 A2985 RMK AO1 P0002
TAF

Airport Information

All Charts
General
Chart Name View
TAKEOFF MINIMUMS
ALTERNATE MINIMUMS
TAKEOFF MINIMUMS
ALTERNATE MINIMUMS

Approaches
Chart Name Download
RNAV (GPS) RWY 02
RNAV (GPS) RWY 20
LOC RWY 20
VOR RWY 20
RNAV (GPS) RWY 02
RNAV (GPS) RWY 20
LOC RWY 20
VOR RWY 20


Airport Statistics
Departures Arrivals Local
All Collected Stats since June 2016: 1 0 0
2021 Stats: 0 0 0
January Stats: 0 0 0

Inbound Traffic (Arrivals) - 0

No inbound traffic.


Outbound Traffic (Departures) - 0

No outbound traffic.


Local Traffic (Pattern) - 0

No local traffic.